Location: *
(37.9500°N, 27.3666°E)
Time: 05:01:41
(UTC+00:00)

SL-08 RB Rocket - Pass Details

Date: 24 October 2021
Orbit: 646 x 683 km, 97.8° (Epoch: 03 December)

Event Time Altitude Azimuth Distance (km) Brightness Sun altitude
Rises 16:31:36 0° 153° (SSE) 2,976 6.8 -14.6°
Reaches altitude 10° 16:33:51 10° 149° (SSE) 2,074 6.0 -15.0°
Maximum altitude 16:38:14 51° 74° (ENE) 843 3.8 -15.9°
Drops below altitude 10° 16:42:42 10° 359° (N) 2,111 6.3 -16.8°
Sets 16:44:59 0° 354° (N) 3,035 7.2 -17.2°
